Location: Hylvaty SDH
(49.9612°N, 16.4057°E)
Time: 12:17:22
(UTC+01:00)

A-11 Canister half - Pass Details

Date: 07 October 2020
Orbit: 1526 x 1683 km, 47.3° (Epoch: 28 October)

Event Time Altitude Azimuth Distance (km) Brightness Sun altitude
Rises 19:43:48 0° 200° (SSW) 4,681 11.7 -14.4°
Reaches altitude 10° 19:47:24 10° 189° (S) 3,691 11.0 -15.0°
Maximum altitude 19:54:48 28° 136° (SE) 2,564 9.7 -16.2°
Enters shadow 19:58:12 22° 104° (ESE) 2,847 9.8 -16.7°
Drops below altitude 10° 20:02:13 10° 82° (E) 3,708 - -17.3°
Sets 20:05:49 0° 72° (ENE) 4,706 - -17.9°
